User: anonymous
Location: Caltech
(34.1382°N, 118.1253°W)
Time: 06:46:15
(UTC-07:00)
Language:

Cosmos-2242 - Orbit

View from above orbital plane
View from above orbital plane
View from above satellite
View from above satellite

Ground track
Ground track

The orbit data is extracted from the following two-line orbital elements,

1 22626U 93024A   14243.23758596  .00000644  00000-0  70768-4 0  1814
2 22626 082.5209 283.5030 0018162 264.9336 094.9807 14.85999390154417
Epoch (UTC): 31 August 2014 05:42:07
Eccentricity: 0.0018162
inclination: 82.5209°
perigee height: 598 km
apogee height: 623 km
right ascension of ascending node: 283.5030°
argument of perigee: 264.9336°
revolutions per day: 14.85999390
mean anomaly at epoch: 94.9807°
orbit number at epoch: 15441

The dashed part of the orbit path shows where the satellite is in the earth's shadow,  

DLR